SCP
0 0 0 0 0 0 0 0 0 0 0 0 0 0 0 0 0 0 0 0 0 0 0 0 0 0 0
0 0 0 0 0 0 0 0 0 0 0 0 0 0 0 0 0 0 0 0 0 0 0 0 0 0 0
0 0 0 0 0 0 0 0 0 0 0 0 0 0 0 0 0 0 0 0 0 0 0 0 0 0 0
0 0 0 0 0 0 0 0 0 0 0 0 0 0 0 0 0 0 0 0 0 0 0 0 0 0 0
0 0 0 0 0 0 0 0 0 0 0 0 0 0 0 0 0 0 0 0 0 0 0 0 0 0 0
0 0 0 0 0 0 0 0 0 0 0 0 0 0 0 0 0 0 0 0 0 0 0 0 0 0 0
0 0 0 0 0 0 0 0 0 0 0 0 0 0 0 0 0 0 0 0 0 0 0 0 0 0 0
0 0 0 0 0 0 0 0 0 0 0 0 0 0 0 0 0 0 0 0 0 0 0 0 0 0 0
0 0 0 0 0 0 0 0 0 0 0 0 0 0 0 0 0 0 0 0 0 0 0 0 0 0 0
0 0 0 0 0 0 0 0 0 0 0 0 0 0 0 0 0 0 0 0 0 0 0 0 0 0 0
0 0 0 0 0 0 0 0 0 0 0 0 0 0 0 0 0 0 0 0 0 0 0 0 0 0 0
0 0 0 0 0 0 0 0 0 0 0 0 0 0 0 0 0 0 0 0 0 0 0 0 0 0 0
0 0 0 0 0 0 0 0 0 0 0 0 0 0 0 0 0 0 0 0 0 0 0 0 0 0 0
0 0 0 0 0 0 0 0 0 0 0 0 0 0 0 0 0 0 0 0 0 0 0 0 0 0 0
0 0 0 0 0 0 0 0 0 0 0 0 0 0 0 0 0 0 0 0 0 0 0 0 0 0 0
0 0 0 0 0 0 0 0 0 0 0 0 0 0 0 0 0 0 0 0 0 0 0 0 0 0 -0
Wind_Speed_500mb
35 35 34 34 33 32 24 18 15 13 11 10 9 9 9 8 7 7 8 9 9 10 10 12 14 16 17
39 39 38 37 34 30 22 17 17 15 12 11 11 10 8 8 7 7 9 13 16 19 20 20 21 21 19
43 41 41 40 38 29 24 24 21 17 15 15 13 12 11 10 11 14 17 17 17 17 17 18 19 18 19
47 47 45 44 39 31 30 27 22 18 17 16 15 14 14 15 14 13 13 15 18 19 19 18 17 16 17
48 50 49 47 40 38 33 26 24 22 22 19 17 17 16 13 11 12 14 16 17 17 16 15 14 14 15
43 50 47 46 40 35 31 25 24 23 22 20 19 16 13 11 12 13 15 15 15 15 14 13 13 14 16
51 48 44 41 36 28 23 31 31 27 24 22 19 15 13 12 14 15 15 13 13 13 13 13 14 16 19
54 49 50 45 42 35 33 41 33 28 26 24 20 16 14 14 15 15 14 13 12 12 13 15 17 20 22
57 51 56 51 46 40 42 42 34 30 28 25 21 17 15 15 17 16 14 13 12 13 15 17 19 20 18
58 59 60 57 55 47 49 41 36 32 29 26 22 18 17 17 18 16 13 13 13 14 15 16 17 13 7
63 64 59 57 54 47 42 39 37 33 30 27 22 20 19 19 18 16 15 14 13 13 14 14 9 4 3
69 67 64 61 55 51 47 46 39 34 32 28 25 22 21 20 18 16 16 16 14 13 11 6 1 6 8
76 76 75 73 65 56 53 46 40 36 33 29 27 24 22 21 18 18 17 16 15 13 8 5 9 9 7
75 81 80 76 67 58 55 48 42 38 34 31 29 26 23 22 20 18 18 17 14 12 8 11 12 12 10
73 79 78 69 64 67 62 56 48 40 35 32 30 27 25 23 21 20 19 17 15 14 12 14 11 11 14
74 80 82 83 85 80 66 57 48 41 36 34 31 28 26 24 23 21 20 19 16 15 16 17 16 12 10
Wind_Direction_500mb
182 182 179 180 180 181 187 191 188 189 191 199 209 216 218 226 238 254 268 275 279 283 286 289 291 286 286
189 190 191 193 191 193 200 199 201 205 211 214 223 224 223 222 228 242 265 276 283 288 288 289 286 290 292
195 198 197 194 198 200 204 205 211 214 216 216 217 221 225 236 254 268 276 285 291 290 294 289 288 286 279
201 200 199 203 205 203 207 213 212 212 217 222 224 234 251 268 276 283 294 300 299 299 296 291 286 282 281
211 207 210 210 205 206 208 211 209 212 218 221 233 248 260 264 275 289 299 302 300 298 298 298 300 300 300
229 225 224 218 202 202 196 216 221 220 223 232 241 245 245 261 281 294 299 300 301 303 304 307 307 308 306
228 225 222 195 197 208 207 233 227 227 234 241 238 236 251 271 285 295 300 299 302 304 307 310 311 317 321
225 229 203 197 201 203 216 234 231 233 237 236 235 240 258 275 289 299 305 305 307 309 312 316 322 325 327
222 220 202 205 209 209 221 227 229 233 232 232 237 246 262 278 292 301 304 309 312 314 317 319 322 329 336
217 216 205 203 205 202 228 228 230 229 229 232 240 253 267 281 293 298 300 300 304 311 313 315 325 339 5
211 214 202 209 209 206 213 230 229 226 230 235 243 253 267 280 290 291 291 290 298 307 307 314 329 26 77
210 211 205 209 210 213 215 221 224 227 231 236 243 252 265 277 280 279 281 290 299 297 304 308 65 123 87
209 210 208 206 208 214 217 218 220 226 230 236 242 251 263 271 271 273 280 287 293 298 292 231 154 142 134
217 214 210 206 206 224 222 218 219 224 230 235 240 249 259 264 268 272 279 286 290 288 257 205 177 183 192
222 216 211 210 214 212 214 217 219 222 229 234 240 248 257 263 266 271 278 286 288 278 240 202 178 186 178
228 221 216 212 211 217 218 218 218 222 228 234 239 247 256 263 268 275 282 286 280 260 233 211 210 190 179
Wind_Speed_850mb
35 35 34 34 33 32 24 18 15 13 11 10 9 9 9 8 7 7 8 9 9 10 10 12 14 16 17
39 39 38 37 34 30 22 17 17 15 12 11 11 10 8 8 7 7 9 13 16 19 20 20 21 21 19
43 41 41 40 38 29 24 24 21 17 15 15 13 12 11 10 11 14 17 17 17 17 17 18 19 18 19
47 47 45 44 39 31 30 27 22 18 17 16 15 14 14 15 14 13 13 15 18 19 19 18 17 16 17
48 50 49 47 40 38 33 26 24 22 22 19 17 17 16 13 11 12 14 16 17 17 16 15 14 14 15
43 50 47 46 40 35 31 25 24 23 22 20 19 16 13 11 12 13 15 15 15 15 14 13 13 14 16
51 48 44 41 36 28 23 31 31 27 24 22 19 15 13 12 14 15 15 13 13 13 13 13 14 16 19
54 49 50 45 42 35 33 41 33 28 26 24 20 16 14 14 15 15 14 13 12 12 13 15 17 20 22
57 51 56 51 46 40 42 42 34 30 28 25 21 17 15 15 17 16 14 13 12 13 15 17 19 20 18
58 59 60 57 55 47 49 41 36 32 29 26 22 18 17 17 18 16 13 13 13 14 15 16 17 13 7
63 64 59 57 54 47 42 39 37 33 30 27 22 20 19 19 18 16 15 14 13 13 14 14 9 4 3
69 67 64 61 55 51 47 46 39 34 32 28 25 22 21 20 18 16 16 16 14 13 11 6 1 6 8
76 76 75 73 65 56 53 46 40 36 33 29 27 24 22 21 18 18 17 16 15 13 8 5 9 9 7
75 81 80 76 67 58 55 48 42 38 34 31 29 26 23 22 20 18 18 17 14 12 8 11 12 12 10
73 79 78 69 64 67 62 56 48 40 35 32 30 27 25 23 21 20 19 17 15 14 12 14 11 11 14
74 80 82 83 85 80 66 57 48 41 36 34 31 28 26 24 23 21 20 19 16 15 16 17 16 12 10
Wind_Direction_850mb
182 182 179 180 180 181 187 191 188 189 191 199 209 216 218 226 238 254 268 275 279 283 286 289 291 286 286
189 190 191 193 191 193 200 199 201 205 211 214 223 224 223 222 228 242 265 276 283 288 288 289 286 290 292
195 198 197 194 198 200 204 205 211 214 216 216 217 221 225 236 254 268 276 285 291 290 294 289 288 286 279
201 200 199 203 205 203 207 213 212 212 217 222 224 234 251 268 276 283 294 300 299 299 296 291 286 282 281
211 207 210 210 205 206 208 211 209 212 218 221 233 248 260 264 275 289 299 302 300 298 298 298 300 300 300
229 225 224 218 202 202 196 216 221 220 223 232 241 245 245 261 281 294 299 300 301 303 304 307 307 308 306
228 225 222 195 197 208 207 233 227 227 234 241 238 236 251 271 285 295 300 299 302 304 307 310 311 317 321
225 229 203 197 201 203 216 234 231 233 237 236 235 240 258 275 289 299 305 305 307 309 312 316 322 325 327
222 220 202 205 209 209 221 227 229 233 232 232 237 246 262 278 292 301 304 309 312 314 317 319 322 329 336
217 216 205 203 205 202 228 228 230 229 229 232 240 253 267 281 293 298 300 300 304 311 313 315 325 339 5
211 214 202 209 209 206 213 230 229 226 230 235 243 253 267 280 290 291 291 290 298 307 307 314 329 26 77
210 211 205 209 210 213 215 221 224 227 231 236 243 252 265 277 280 279 281 290 299 297 304 308 65 123 87
209 210 208 206 208 214 217 218 220 226 230 236 242 251 263 271 271 273 280 287 293 298 292 231 154 142 134
217 214 210 206 206 224 222 218 219 224 230 235 240 249 259 264 268 272 279 286 290 288 257 205 177 183 192
222 216 211 210 214 212 214 217 219 222 229 234 240 248 257 263 266 271 278 286 288 278 240 202 178 186 178
228 221 216 212 211 217 218 218 218 222 228 234 239 247 256 263 268 275 282 286 280 260 233 211 210 190 179